This demonstration page uses our WeatherBlox Daily Observations layout. Learn more.

Left ArrowRight Arrow

36.17497, -115.13722

Hourly Observations for March 13, 2021

Temp ( °F °C ) Dew Point ( °F °C ) Humidity (%) Winds ( mph kmh ) Pressure ( in mb ) Visibility ( mi km ) Precip ( " mm )
12:53 am 00:53 Cloudy 45 7.2 36 2.2 71 71 W 7 11 30.06 1018 10 16 0.00 0.00
1:53 am 01:53 Cloudy 46 7.8 36 2.2 68 68 WSW 6 9 30.04 1017 10 16 0.00 0.00
2:53 am 02:53 Cloudy 45 7.2 36 2.2 71 71 WSW 6 9 30.03 1017 10 16 0.00 0.00
3:53 am 03:53 Cloudy 45 7.2 35 1.7 68 68 SW 7 11 30.02 1017 10 16 0.00 0.00
4:53 am 04:53 Mostly Cloudy 45 7.2 34 1.1 66 66 W 17 28 30.02 1017 10 16 0.00 0.00
5:53 am 05:53 Clear 45 7.2 33 0.6 63 63 W 10 17 30.05 1018 10 16 0.00 0.00
6:53 am 06:53 Sunny 44 6.7 34 1.1 68 68 Calm 30.07 1018 10 16 0.00 0.00
7:53 am 07:53 Sunny 45 7.2 36 2.2 71 71 N 5 7 30.09 1019 10 16 0.00 0.00
8:53 am 08:53 Partly Cloudy 47 8.3 35 1.7 63 63 VRB 3 6 30.10 1019 10 16 0.00 0.00
9:42 am 09:42 Mostly Cloudy 53 11.7 21 -6.1 28 28 NNW 16 26 30.03 1017 10 16 0.00 0.00
9:53 am 09:53 Mostly Cloudy 54 12.2 21 -6.1 28 28 NNW 17 28 30.09 1019 10 16 0.00 0.00
10:53 am 10:53 Mostly Cloudy 54 12.2 17 -8.3 23 23 NNW 20 31 30.10 1019 10 16 0.00 0.00
11:00 am 11:00 Mostly Cloudy 54 12.2 17 -8.3 23 23 NW 21 33 30.04 1017 10 16 0.00 0.00
11:53 am 11:53 Mostly Cloudy 55 12.8 18 -7.8 23 23 NW 18 30 30.11 1020 10 16 0.00 0.00
12:53 pm 12:53 Sunny 57 13.9 18 -7.8 22 22 NNW 20 31 30.10 1019 10 16 0.00 0.00
1:53 pm 13:53 Partly Cloudy 58 14.4 19 -7.2 22 22 N 15 24 30.09 1019 10 16 0.00 0.00
2:53 pm 14:53 Sunny 60 15.6 19 -7.2 20 20 NNW 10 17 30.09 1019 10 16 0.00 0.00
3:53 pm 15:53 Sunny 62 16.7 19 -7.2 19 19 NNW 16 26 30.09 1019 10 16 0.00 0.00
4:53 pm 16:53 Sunny 61 16.1 19 -7.2 20 20 NNW 10 17 30.08 1019 10 16 0.00 0.00
5:53 pm 17:53 Clear 59 15 19 -7.2 21 21 N 5 7 30.08 1019 10 16 0.00 0.00
6:53 pm 18:53 Clear 56 13.3 20 -6.7 24 24 Calm 30.09 1019 10 16 0.00 0.00
7:53 pm 19:53 Clear 53 11.7 23 -5 31 31 W 3 6 30.10 1019 10 16 0.00 0.00
8:53 pm 20:53 Clear 50 10 25 -3.9 38 38 NW 6 9 30.10 1019 10 16 0.00 0.00
9:53 pm 21:53 Clear 46 7.8 27 -2.8 47 47 WNW 3 6 30.10 1019 10 16 0.00 0.00
10:53 pm 22:53 Clear 45 7.2 28 -2.2 52 52 NW 6 9 30.10 1019 10 16 0.00 0.00
11:53 pm 23:53 Clear 45 7.2 27 -2.8 49 49 NNE 6 9 30.10 1019 10 16 0.00 0.00

Powered by AerisWeather